Flag for Guatemala Weather past 2 weeks in Escuintla, Guatemala

Now
63 °F

Drizzle. Mostly cloudy.


Feels Like: 63 °F
Forecast: 67 / 91 °F
Wind: 5 mph from North

Location: Guatemala Aeropuertola Aurora

Current Time: Sep 23, 2014 at 11:25:22 PM

Latest Report: Sep 23, 2014 at 11:00 PM


Visibility: 4 mi

Pressure: 30.27 "Hg

Humidity: 94%

Dew point: 61 °F

Location of EscuintlaLocation

Historic Weather in Escuintla — Graph

°F

Escuintla temperature yesterday

Maximum temperature yesterday: 77 °F (at 12:00 PM)
Minimum temperature yesterday: 61 °F (at 7:00 AM)
Average temperature yesterday: 67 °F

Past Weeks' High & Low Weather Summary

 TemperatureHumidityPressure
High81 °F (Sep 18, 1:00 PM)100% (Sep 8, 10:00 PM)30.36 "Hg (Sep 8, 10:00 PM)
Low61 °F (Sep 11, 6:00 AM)45% (Sep 18, 2:00 PM)30.12 "Hg (Sep 11, 4:00 PM)
Average67 °F86%30.24 "Hg
* Reported Sep 8 10:00 PM — Sep 23 10:00 PM, Escuintla, Weather by CustomWeather, © 2014

Note: Actual official high and low records may vary slightly from our data, if they occured in-between our weather recording intervals... More about our weather records

Advertising

Escuintla weather history for previous 24 hours

 ConditionsComfort  
Time TempWeatherWind HumidityBarometerVisibility
10:00 PM
Sep 23
63 °FPassing clouds.7 mph94%30.27 "Hg4 mi
9:40 PMN/APassing clouds.7 mphN/AN/A4 mi
9:00 PM63 °FRain. Partly cloudy.No wind94%30.27 "Hg2 mi
8:42 PMN/ARain.No windN/AN/A2 mi
8:30 PMN/AHeavy rain.No windN/AN/A1 mi
8:15 PMN/AHeavy rain.No windN/AN/A1 mi
8:00 PM63 °FRain. Passing clouds.5 mph94%30.24 "Hg2 mi
7:00 PM63 °FPartly cloudy.5 mph94%30.21 "Hg4 mi
6:45 PMN/APassing clouds.9 mphN/AN/A4 mi
6:00 PM64 °FStrong thunderstorms. Passing clouds.5 mph94%30.21 "Hg1 mi
5:02 PMN/AThunderstorms.9 mphN/AN/A1 mi
4:00 PM70 °FBroken clouds.7 mph78%30.15 "HgN/A
3:00 PM68 °FBroken clouds.7 mph78%30.15 "HgN/A
2:35 PMN/ALight rain.7 mphN/AN/AN/A
2:00 PM70 °FScattered clouds.9 mph73%30.18 "HgN/A
1:00 PM77 °FPassing clouds.14 mph57%30.18 "HgN/A
12:00 PM77 °FScattered clouds.12 mph61%30.24 "HgN/A
11:00 AM75 °FPassing clouds.12 mph65%30.24 "HgN/A
10:00 AM75 °FSunny.12 mph57%30.24 "Hg10 mi
9:00 AM72 °FSunny.12 mph69%30.24 "Hg10 mi
8:00 AM66 °FSunny.9 mph78%30.24 "Hg10 mi
7:00 AM63 °FSunny.7 mph88%30.27 "Hg10 mi
6:00 AM61 °FPartly sunny.9 mph94%30.27 "HgN/A
5:00 AM61 °FPassing clouds.9 mph94%30.27 "HgN/A
4:00 AM61 °FPassing clouds.9 mph94%30.27 "HgN/A
3:00 AM63 °FPassing clouds.9 mph94%30.27 "HgN/A
2:00 AM63 °FPassing clouds.12 mph94%30.27 "HgN/A
1:00 AM63 °FDrizzle. Mostly cloudy.9 mph94%30.30 "HgN/A
12:00 AM63 °FDrizzle. Mostly cloudy.7 mph94%30.30 "HgN/A
11:00 PM
Sep 22
63 °FLight rain. Mostly cloudy.7 mph94%30.30 "Hg5 mi
Weather by CustomWeather, © 2014

See weather overviewHow to use our weather pages